KE2BQW Weather Reports


time (UTC)temp
C
wind
direction
speed
KPH
gust
KPH
rain 1hr
cm
rain 24hr
cm
rain mn
cm
humidity
%
barometer
mb
20260503054555 5 0.0 0.0 0.00 0.00 0.00 63 1015.6
20260503053515 5 0.0 0.0 0.00 0.00 0.00 64 1015.7
20260503052516 5 0.0 0.0 0.00 0.00 0.00 63 1015.8
20260503051516 5 0.0 0.0 0.00 0.00 0.00 63 1015.9
20260503050516 5 0.0 0.0 0.00 0.00 0.00 63 1015.9
20260503045516 5 0.0 0.0 0.00 0.00 0.00 63 1016.0
20260503044556 5 0.0 0.0 0.00 0.00 0.00 62 1016.0
20260503043516 5 0.0 0.0 0.00 0.00 0.00 63 1016.0
20260503042516 5 0.0 0.0 0.00 0.00 0.00 63 1016.1
20260503041516 5 0.0 0.0 0.00 0.00 0.00 62 1016.1
20260503040516 5 0.0 0.0 0.00 0.00 0.00 62 1016.1
20260503035515 5 0.0 0.0 0.00 0.00 0.00 62 1016.1
20260503034536 5 0.0 0.0 0.00 0.00 0.00 62 1016.0
20260503033515 5 0.0 0.0 0.00 0.00 0.00 62 1016.1
20260503032516 5 0.0 0.0 0.00 0.00 0.00 62 1016.1
20260503031516 6 0.0 0.0 0.00 0.00 0.00 62 1016.1
20260503030536 6 0.0 0.0 0.00 0.00 0.00 62 1016.2
20260503025516 6 0.0 0.0 0.00 0.00 0.00 61 1016.2
20260503024516 6 0.0 0.0 0.00 0.00 0.00 61 1016.2
20260503023536 6 0.0 0.0 0.00 0.00 0.00 61 1016.2
20260503022516 6 0.0 0.0 0.00 0.00 0.00 61 1016.4
20260503021536 6 0.0 0.0 0.00 0.00 0.00 61 1016.4
20260503020536 6 0.0 0.0 0.00 0.00 0.00 61 1016.4
20260503015516 6 0.0 0.0 0.00 0.00 0.00 61 1016.4
20260503014516 6 0.0 0.0 0.00 0.00 0.00 61 1016.3
20260503013517 6 0.0 0.0 0.00 0.00 0.00 61 1016.3
20260503012516 6 0.0 0.0 0.00 0.00 0.00 61 1016.3
20260503011515 6 0.0 0.0 0.00 0.00 0.00 61 1016.3
20260503010516 6 0.0 0.0 0.00 0.00 0.00 61 1016.2
20260503005517 6 0.0 0.0 0.00 0.00 0.00 61 1016.1
20260503004515 6 0.0 0.0 0.00 0.00 0.00 60 1016.0
20260503003517 6 0.0 0.0 0.00 0.00 0.00 60 1015.8
20260503002515 6 0.0 0.0 0.00 0.00 0.00 60 1015.8
20260503001557 6 0.0 0.0 0.00 0.00 0.00 60 1015.7
20260503000516 6 0.0 0.0 0.00 0.00 0.00 59 1015.7
20260502235516 6 0.0 0.0 0.00 0.00 0.00 59 1015.6
20260502234517 6 0.0 0.0 0.00 0.00 0.00 59 1015.6
20260502233516 6 0.0 0.0 0.00 0.00 0.00 58 1015.5
20260502232516 6 0.0 0.0 0.00 0.00 0.00 58 1015.5
20260502231515 6 0.0 0.0 0.00 0.00 0.00 58 1015.3
20260502230537 6 0.0 0.0 0.00 0.00 0.00 57 1015.4
20260502225515 6 0.0 0.0 0.00 0.00 0.00 57 1015.3
20260502224535 7 0.0 0.0 0.00 0.00 0.00 55 1015.3
20260502223516 7 0.0 0.0 0.00 0.00 0.00 53 1015.2
20260502222515 7 0.0 0.0 0.00 0.00 0.00 53 1015.1
20260502221516 7 0.0 0.0 0.00 0.03 0.00 53 1015.1
20260502220516 7 0.0 0.0 0.00 0.03 0.00 54 1015.2
20260502215536 7 0.0 0.0 0.00 0.03 0.00 55 1015.1
20260502214516 7 0.0 0.0 0.00 0.05 0.00 56 1015.1
20260502213517 7 0.0 0.0 0.00 0.05 0.00 56 1015.0
20260502212516 7 0.0 0.0 0.00 0.05 0.00 57 1015.0
20260502211516 7 0.0 0.0 0.00 0.05 0.00 57 1015.0
20260502210516 7 0.0 0.0 0.00 0.05 0.00 56 1015.0
20260502205517 7 0.0 0.0 0.00 0.05 0.00 54 1014.9
20260502204515 7 0.0 0.0 0.00 0.05 0.00 54 1014.9
20260502203516 7 0.0 0.0 0.00 0.05 0.00 55 1014.9
20260502202515 7 0.0 0.0 0.00 0.08 0.00 56 1014.8
20260502201516 7 0.0 0.0 0.00 0.08 0.00 57 1015.0
20260502200536 7 0.0 0.0 0.00 0.08 0.00 56 1015.1
20260502195516 7 0.0 0.0 0.00 0.08 0.00 55 1015.2
20260502194515 7 0.0 0.0 0.00 0.08 0.00 55 1015.1
20260502193516 7 0.0 0.0 0.00 0.08 0.00 54 1015.1
20260502192515 7 0.0 0.0 0.00 0.08 0.00 54 1015.2
20260502191536 7 0.0 0.0 0.00 0.08 0.00 54 1015.2
20260502190516 7 0.0 0.0 0.00 0.08 0.00 53 1015.2
20260502185516 8 0.0 0.0 0.00 0.08 0.00 51 1015.1
20260502184536 8 0.0 0.0 0.00 0.08 0.00 51 1015.1
20260502183515 8 0.0 0.0 0.00 0.08 0.00 50 1015.1
20260502182537 8 0.0 0.0 0.00 0.08 0.00 49 1015.0
20260502181515 8 0.0 0.0 0.00 0.08 0.00 48 1014.9
20260502180536 8 0.0 0.0 0.00 0.08 0.00 48 1014.9
20260502163516 8 0.0 0.0 0.00 0.08 0.00 43 1014.9
20260502162517 8 0.0 0.0 0.00 0.08 0.00 44 1014.9
20260502161536 8 0.0 0.0 0.00 0.08 0.00 45 1015.0
20260502160516 8 0.0 0.0 0.00 0.08 0.00 45 1014.9
20260502151516 7 0.0 0.0 0.00 0.08 0.00 50 1015.1
20260502150535 7 0.0 0.0 0.00 0.08 0.00 52 1015.2
20260502130516 5 0.0 0.0 0.00 0.08 0.00 71 1016.2
20260502123515 4 0.0 0.0 0.00 0.08 0.00 75 1016.4
20260502122517 4 0.0 0.0 0.00 0.08 0.00 76 1016.4
20260502121516 4 0.0 0.0 0.00 0.08 0.00 77 1016.5
20260502120535 3 0.0 0.0 0.00 0.08 0.00 78 1016.4
20260502115537 3 0.0 0.0 0.00 0.08 0.00 78 1016.4
20260502114517 3 0.0 0.0 0.00 0.08 0.00 79 1016.4
20260502113516 3 0.0 0.0 0.00 0.08 0.00 80 1017.1
20260502112516 3 0.0 0.0 0.00 0.08 0.00 80 1017.2
20260502111515 2 0.0 0.0 0.00 0.08 0.00 80 1017.1
20260502110516 2 0.0 0.0 0.00 0.08 0.00 80 1017.1
20260502105516 2 0.0 0.0 0.00 0.08 0.00 80 1016.9
20260502104515 2 0.0 0.0 0.00 0.08 0.00 80 1016.8
20260502103516 2 0.0 0.0 0.00 0.08 0.00 80 1016.8
20260502102536 2 0.0 0.0 0.00 0.08 0.00 80 1016.7
20260502101516 2 0.0 0.0 0.00 0.08 0.00 79 1016.6
20260502100536 2 0.0 0.0 0.00 0.08 0.00 79 1016.5
20260502091516 3 0.0 0.0 0.00 0.08 0.00 78 1016.1
20260502090515 3 0.0 0.0 0.00 0.08 0.00 78 1016.1
20260502071516 5 0.0 0.0 0.00 0.08 0.00 82 1014.9
20260502070516 5 0.0 0.0 0.00 0.08 0.00 83 1014.7
20260502065517 5 0.0 0.0 0.00 0.08 0.00 84 1014.8
20260502064517 5 0.0 0.0 0.00 0.08 0.00 84 1014.7